Location: Ellerstadt
(49.4644°N, 8.2615°E)
Time: 20:35:29
(UTC+00:00)

Vanguard 1 - Pass Details

Date: 15 June 2021
Orbit: 651 x 3832 km, 34.2° (Epoch: 27 July)

Event Time Altitude Azimuth Distance (km) Brightness Sun altitude
Rises 22:48:37 0° 242° (WSW) 7,834 14.5 -16.7°
Reaches altitude 10° 22:54:44 10° 237° (WSW) 6,562 14.0 -16.8°
Maximum altitude 23:12:14 42° 176° (S) 3,329 12.2 -17.1°
Drops below altitude 10° 23:22:50 10° 111° (ESE) 4,071 13.0 -17.2°
Sets 23:25:39 0° 104° (ESE) 4,717 13.4 -17.2°
